Powrót do katalogu

UKUBE 1

AktywnyNaukaPO
NORAD 40074·PAYLOAD·🇬🇧 United Kingdom

Wystrzelony Jul 8, 2014 z Baikonur Cosmodrome

Loading…

Następne Przeloty (najbliższe 24 godziny)

TLE

ŚwieżeSource: Space-Track

Epoka: Sep 14, 2026, 12:19 UTC

1 40074U 14037F   26257.51342373  .00006250  00000-0  34153-3 0  9992
2 40074  98.4260 270.2735 0001217 154.8377 205.2912 15.14729142662076

Śledź UKUBE 1 w czasie rzeczywistym z AllMySat

Download on the App Store